Regional Weather Roundup
Issued by NWS

Home | Current Version | Previous Version | Text Only | Print | Product List | Glossary On
Versions: 1 2 3 4 5 6 7 8 9 10 11 12 13 14 15 16 17 18 19 20 21 22 23 24 25 26 27 28 29 30 31 32 33 34 35 36 37 38 39 40 41 42 43 44 45 46 47 48 49 50
000
ASUS43 KTOP 280959
RWRKS

WEATHER ROUNDUP FOR KANSAS
NATIONAL WEATHER SERVICE GOODLAND KS
500 AM CDT TUE APR 28 2015

NOTE:  "FAIR" INDICATES FEW OR NO CLOUDS BELOW 12,000 FEET WITH NO
SIGNIFICANT WEATHER AND/OR OBSTRUCTIONS TO VISIBILITY.

KSZ001>006-013>018-027>032-041>047-281100-
NORTHWEST KANSAS

CITY           SKY/WX    TMP DP  RH WIND       PRES   REMARKS
GOODLAND       PTCLDY    41  36  82 N10       30.28R
HAYS           PTCLDY    37  28  70 NW8       30.21R
HILL CITY      PTCLDY    44  35  70 N16       30.24R
RUSSELL        PTCLDY    39  34  82 NW10      30.19R WCI  32
$$

KSZ061>065-074>080-084>089-281100-
SOUTHWEST KANSAS

CITY           SKY/WX    TMP DP  RH WIND       PRES   REMARKS
DODGE CITY     MOCLDY    35  30  82 NW10      30.20R WCI  27
ELKHART          N/A     37  30  75 NW6         N/A
GARDEN CITY    CLEAR     35  31  85 N10       30.22R WCI  27
GREAT BEND     MOCLDY    41  34  75 NW6       30.19R
LIBERAL        PTCLDY    39  32  75 NW8       30.22R
$$

KSZ066>073-081>083-090>101-281100-
SOUTHEAST KANSAS

CITY           SKY/WX    TMP DP  RH WIND       PRES   REMARKS
CHANUTE        PTCLDY    47  39  74 N6        30.11R
COFFEYVILLE    CLOUDY    49  41  74 NE8       30.09R
HUTCHINSON     MOCLDY    49  36  61 N9        30.16R
NEWTON         MOCLDY    45  36  70 N8        30.16R
PARSONS        MOCLDY    50  40  68 VRB3      30.11R
WICHITA INTL   MOCLDY    49  39  68 N9        30.13R
WICHITA JABRA  MOCLDY    46  38  73 N8        30.13R
WINFIELD       CLOUDY    48  42  80 N5        30.13R
$$

KSZ007>012-019>026-033>040-048>060-102>105-281100-
NORTHEAST KANSAS

CITY           SKY/WX    TMP DP  RH WIND       PRES   REMARKS
CONCORDIA      MOCLDY    41  35  79 W6        30.19R
EMPORIA        CLOUDY    46  38  73 N6        30.13R
LAWRENCE       MOCLDY    46  36  68 CALM      30.15R
MANHATTAN      PTCLDY    39  38  96 CALM      30.16R
OLATHE IND     MOCLDY    46  37  71 N6        30.14S
OLATHE EXE     MOCLDY    49  37  63 N6        30.13R
SALINA         MOCLDY    43  36  76 NW8       30.17R
TOPEKA BILLARD MOCLDY    44  38  79 CALM      30.16R
TOPEKA FORBES  MOCLDY    44  37  76 NW6       30.15R
$$


USA.gov is the U.S. government's official web portal to all federal, state and local government web resources and services.